SCP
0 0 0 0 0 0 -0 -0 -0 -0 -0 -0 0 0 0 -0 -0 1 0 0 -0 -0 -0 -0 -0 -1 -1 -0 -0 -0 -0 -0
0 0 0 0 0 0 -0 -0 -0 -0 -0 -0 -0 -0 -0 -0 -0 0 0 0 -0 -0 -0 -0 -0 -0 -0 -0 -0 -0 -0 -0
0 0 0 0 0 0 -0 -0 -0 0 -0 -0 -0 0 0 -0 -0 -0 0 0 -0 -0 -0 -0 -0 -0 -0 -0 -0 -0 -0 -0
0 0 0 0 0 0 -0 0 -0 -0 -0 -0 0 0 0 -0 -0 -0 -0 -0 0 -0 -0 -0 -0 -0 -0 -0 -0 0 0 0
0 0 0 0 0 0 0 -0 -0 -0 0 0 0 0 0 0 0 0 0 0 0 0 0 0 -0 -0 0 0 0 0 0 0
0 0 0 0 0 0 0 -0 -0 0 -0 0 0 1 0 -0 0 0 0 0 0 0 0 0 0 0 0 0 0 0 0 0
0 0 0 0 0 0 -0 0 0 -0 0 0 0 0 0 -0 0 0 0 0 0 0 0 0 0 0 0 -0 0 0 0 0
0 0 0 0 0 0 0 0 -0 -0 0 0 0 0 -0 0 0 0 0 0 0 0 0 0 0 0 0 0 0 0 0 0
0 0 0 0 0 0 0 0 0 -0 0 0 0 0 -0 0 0 0 0 0 0 0 0 0 0 0 0 0 0 0 0 0
0 0 0 0 0 0 0 0 0 0 0 0 0 0 0 0 0 0 0 0 0 0 0 0 0 0 0 0 0 0 0 0
0 0 0 0 0 0 0 0 0 0 0 0 0 0 0 0 0 0 0 0 0 0 0 0 0 0 0 0 0 0 0 0
0 0 0 0 0 0 0 0 0 0 0 0 0 0 0 0 0 0 0 0 0 0 0 0 0 0 0 0 0 0 0 0
0 0 0 0 0 0 0 0 0 0 0 0 0 0 -0 -0 -0 0 0 0 0 0 0 0 0 0 0 0 0 0 0 0
0 0 0 0 0 0 0 0 0 0 0 0 0 0 -0 -0 0 0 0 0 0 0 0 0 0 0 0 0 0 0 0 0
0 0 0 0 0 0 0 0 0 0 0 0 0 0 -0 -0 -0 0 0 0 0 0 0 0 0 0 0 0 0 0 0 0
0 0 0 0 0 0 0 -0 0 0 0 0 0 0 0 0 0 0 0 0 0 0 0 0 0 1 0 0 0 0 0 0
0 0 0 0 0 0 0 -0 0 0 0 0 0 0 -0 -0 0 0 1 1 0 0 0 0 0 1 1 1 0 0 0 0
0 0 0 0 0 0 0 0 0 0 0 0 0 0 0 0 -0 0 0 1 1 1 0 0 0 1 1 1 0 0 0 0
0 0 0 0 0 0 0 0 0 0 0 0 0 0 0 0 0 0 0 0 1 1 1 1 1 1 1 1 0 0 0 0
0 0 0 0 0 0 0 0 0 0 0 0 0 0 0 0 0 0 0 0 1 2 2 2 1 2 2 3 2 1 1 -0
Wind_Speed_500mb
9 6 8 9 9 12 3 13 10 6 3 6 6 11 37 42 42 57 58 57 54 50 48 45 40 38 37 34 32 29 29 28
8 5 4 5 14 7 7 6 7 2 5 6 16 33 28 39 33 56 54 55 55 50 45 44 42 39 37 34 33 31 28 26
6 7 7 10 15 24 11 9 16 14 4 7 20 26 28 38 44 51 56 56 56 51 48 46 43 41 39 35 30 28 26 23
3 7 10 13 15 13 14 9 6 10 3 8 23 29 35 35 39 50 49 51 54 52 47 45 44 42 39 36 32 28 26 23
8 4 10 9 26 10 17 11 13 7 7 7 25 29 39 38 47 51 48 49 55 54 50 46 43 42 41 38 33 28 24 23
6 3 8 15 20 3 22 16 10 23 11 5 36 40 41 38 48 46 48 50 50 52 51 47 44 43 42 38 34 31 27 23
7 10 7 16 19 9 5 14 18 22 14 10 43 44 50 47 55 53 50 48 47 49 49 48 48 46 43 41 38 33 30 26
10 5 4 18 12 29 7 12 9 25 23 14 47 51 52 52 55 56 54 52 48 49 53 52 49 48 46 44 42 40 34 29
12 23 23 14 20 11 15 3 20 28 26 46 56 44 49 48 50 55 50 45 42 44 47 48 49 49 47 46 44 38 34 35
12 18 9 7 5 13 12 12 8 22 37 60 50 45 50 52 50 48 46 43 43 45 44 44 45 49 48 48 43 37 36 36
19 30 29 16 23 11 18 15 7 19 39 61 45 44 46 54 48 42 43 42 42 43 43 44 45 49 47 46 39 37 38 36
14 18 11 9 1 14 20 25 18 20 39 60 61 48 48 56 52 52 50 42 41 46 50 51 49 48 43 42 38 35 38 36
8 2 6 11 8 9 18 19 19 22 31 50 64 60 53 52 53 55 56 50 44 40 53 54 51 47 41 41 39 38 37 36
8 1 5 13 12 17 29 25 30 29 30 38 57 63 56 53 54 53 57 56 59 52 58 60 59 55 36 41 44 41 40 37
11 10 1 7 12 9 25 29 40 39 38 41 45 57 55 53 59 56 53 49 52 63 66 64 65 62 53 39 51 41 40 39
8 0 4 2 13 11 20 19 29 28 30 37 48 59 61 62 64 60 64 52 48 53 60 62 67 66 61 46 48 43 41 45
11 10 2 8 7 18 17 4 4 10 16 26 32 44 69 74 75 73 70 63 53 60 60 61 67 70 72 54 51 47 47 46
16 8 12 5 8 8 8 17 34 38 40 38 29 20 13 56 63 73 77 72 65 67 68 69 74 76 74 62 56 54 47 41
15 9 3 3 10 10 9 45 51 53 46 51 49 47 32 23 51 62 68 80 80 76 76 75 80 78 77 70 64 61 51 38
7 7 8 3 6 10 8 17 21 45 56 58 60 61 62 41 20 48 73 80 94 94 88 86 85 82 80 78 77 73 54 36
Wind_Direction_500mb
95 121 165 184 253 281 152 121 137 161 249 178 223 180 149 159 168 172 170 169 170 167 168 170 173 167 163 161 158 156 156 155
83 198 266 194 246 279 161 131 150 160 269 225 189 160 174 174 169 168 169 173 173 169 167 172 176 171 166 166 164 162 162 160
78 287 260 249 252 248 192 163 202 174 269 252 185 174 169 170 179 175 174 177 175 174 173 175 179 176 170 170 171 166 164 163
175 250 264 272 266 230 199 202 209 186 230 228 193 179 164 168 170 174 175 176 178 177 177 178 181 181 178 175 175 175 171 170
195 256 294 266 338 180 169 199 225 217 187 219 196 170 169 170 165 171 177 180 182 181 182 184 185 187 186 182 181 183 182 182
256 194 271 332 360 39 165 189 227 217 238 280 181 173 168 164 171 179 182 184 185 188 187 191 193 194 193 190 190 192 195 194
242 173 266 346 5 34 271 168 186 210 271 278 172 172 167 173 180 183 187 188 189 189 193 198 198 198 198 198 197 201 207 208
218 214 306 317 330 325 184 165 248 239 243 213 171 170 179 186 184 187 190 190 191 193 197 199 199 203 202 202 204 207 211 217
259 257 274 284 311 309 138 261 243 223 206 169 173 179 195 195 192 191 192 191 195 200 201 202 204 205 206 208 210 212 214 221
284 297 273 211 247 295 210 199 258 244 195 180 188 201 196 197 196 195 193 197 201 205 207 205 205 207 208 211 211 213 220 221
285 294 279 258 238 213 229 185 236 226 209 196 196 210 206 202 202 203 209 207 212 212 212 211 209 210 211 214 215 217 222 224
295 286 270 192 206 165 220 202 213 205 214 211 213 214 212 210 210 211 217 217 216 221 219 214 213 213 214 218 221 226 229 229
247 230 261 172 2 219 230 205 225 230 221 218 220 220 219 222 220 217 224 227 220 227 225 221 218 215 219 221 223 230 234 235
279 206 214 144 255 261 244 221 219 223 230 231 227 225 224 224 224 226 233 240 233 234 228 225 220 213 216 226 225 233 235 239
315 192 298 173 241 242 326 262 218 221 223 230 235 227 225 221 213 217 221 227 231 230 225 228 223 218 221 230 229 239 240 242
271 255 20 196 268 294 335 244 251 208 224 230 231 229 226 225 222 220 215 223 221 219 222 227 225 223 224 239 230 239 239 240
255 233 294 269 271 299 340 84 285 292 295 275 267 257 241 231 229 228 222 219 214 210 210 214 221 223 222 231 236 235 234 238
284 280 162 245 270 294 32 55 43 38 27 10 3 328 296 252 253 240 229 227 220 218 212 212 215 220 224 230 228 230 232 223
214 7 88 141 341 341 47 52 49 49 44 38 28 15 357 290 249 249 252 241 235 233 223 216 215 217 223 228 231 227 223 206
197 103 225 54 249 296 79 41 32 29 37 36 34 30 23 4 321 258 247 244 244 234 230 221 218 215 219 226 222 222 217 206
Wind_Speed_850mb
9 6 8 9 9 12 3 13 10 6 3 6 6 11 37 42 42 57 58 57 54 50 48 45 40 38 37 34 32 29 29 28
8 5 4 5 14 7 7 6 7 2 5 6 16 33 28 39 33 56 54 55 55 50 45 44 42 39 37 34 33 31 28 26
6 7 7 10 15 24 11 9 16 14 4 7 20 26 28 38 44 51 56 56 56 51 48 46 43 41 39 35 30 28 26 23
3 7 10 13 15 13 14 9 6 10 3 8 23 29 35 35 39 50 49 51 54 52 47 45 44 42 39 36 32 28 26 23
8 4 10 9 26 10 17 11 13 7 7 7 25 29 39 38 47 51 48 49 55 54 50 46 43 42 41 38 33 28 24 23
6 3 8 15 20 3 22 16 10 23 11 5 36 40 41 38 48 46 48 50 50 52 51 47 44 43 42 38 34 31 27 23
7 10 7 16 19 9 5 14 18 22 14 10 43 44 50 47 55 53 50 48 47 49 49 48 48 46 43 41 38 33 30 26
10 5 4 18 12 29 7 12 9 25 23 14 47 51 52 52 55 56 54 52 48 49 53 52 49 48 46 44 42 40 34 29
12 23 23 14 20 11 15 3 20 28 26 46 56 44 49 48 50 55 50 45 42 44 47 48 49 49 47 46 44 38 34 35
12 18 9 7 5 13 12 12 8 22 37 60 50 45 50 52 50 48 46 43 43 45 44 44 45 49 48 48 43 37 36 36
19 30 29 16 23 11 18 15 7 19 39 61 45 44 46 54 48 42 43 42 42 43 43 44 45 49 47 46 39 37 38 36
14 18 11 9 1 14 20 25 18 20 39 60 61 48 48 56 52 52 50 42 41 46 50 51 49 48 43 42 38 35 38 36
8 2 6 11 8 9 18 19 19 22 31 50 64 60 53 52 53 55 56 50 44 40 53 54 51 47 41 41 39 38 37 36
8 1 5 13 12 17 29 25 30 29 30 38 57 63 56 53 54 53 57 56 59 52 58 60 59 55 36 41 44 41 40 37
11 10 1 7 12 9 25 29 40 39 38 41 45 57 55 53 59 56 53 49 52 63 66 64 65 62 53 39 51 41 40 39
8 0 4 2 13 11 20 19 29 28 30 37 48 59 61 62 64 60 64 52 48 53 60 62 67 66 61 46 48 43 41 45
11 10 2 8 7 18 17 4 4 10 16 26 32 44 69 74 75 73 70 63 53 60 60 61 67 70 72 54 51 47 47 46
16 8 12 5 8 8 8 17 34 38 40 38 29 20 13 56 63 73 77 72 65 67 68 69 74 76 74 62 56 54 47 41
15 9 3 3 10 10 9 45 51 53 46 51 49 47 32 23 51 62 68 80 80 76 76 75 80 78 77 70 64 61 51 38
7 7 8 3 6 10 8 17 21 45 56 58 60 61 62 41 20 48 73 80 94 94 88 86 85 82 80 78 77 73 54 36
Wind_Direction_850mb
95 121 165 184 253 281 152 121 137 161 249 178 223 180 149 159 168 172 170 169 170 167 168 170 173 167 163 161 158 156 156 155
83 198 266 194 246 279 161 131 150 160 269 225 189 160 174 174 169 168 169 173 173 169 167 172 176 171 166 166 164 162 162 160
78 287 260 249 252 248 192 163 202 174 269 252 185 174 169 170 179 175 174 177 175 174 173 175 179 176 170 170 171 166 164 163
175 250 264 272 266 230 199 202 209 186 230 228 193 179 164 168 170 174 175 176 178 177 177 178 181 181 178 175 175 175 171 170
195 256 294 266 338 180 169 199 225 217 187 219 196 170 169 170 165 171 177 180 182 181 182 184 185 187 186 182 181 183 182 182
256 194 271 332 360 39 165 189 227 217 238 280 181 173 168 164 171 179 182 184 185 188 187 191 193 194 193 190 190 192 195 194
242 173 266 346 5 34 271 168 186 210 271 278 172 172 167 173 180 183 187 188 189 189 193 198 198 198 198 198 197 201 207 208
218 214 306 317 330 325 184 165 248 239 243 213 171 170 179 186 184 187 190 190 191 193 197 199 199 203 202 202 204 207 211 217
259 257 274 284 311 309 138 261 243 223 206 169 173 179 195 195 192 191 192 191 195 200 201 202 204 205 206 208 210 212 214 221
284 297 273 211 247 295 210 199 258 244 195 180 188 201 196 197 196 195 193 197 201 205 207 205 205 207 208 211 211 213 220 221
285 294 279 258 238 213 229 185 236 226 209 196 196 210 206 202 202 203 209 207 212 212 212 211 209 210 211 214 215 217 222 224
295 286 270 192 206 165 220 202 213 205 214 211 213 214 212 210 210 211 217 217 216 221 219 214 213 213 214 218 221 226 229 229
247 230 261 172 2 219 230 205 225 230 221 218 220 220 219 222 220 217 224 227 220 227 225 221 218 215 219 221 223 230 234 235
279 206 214 144 255 261 244 221 219 223 230 231 227 225 224 224 224 226 233 240 233 234 228 225 220 213 216 226 225 233 235 239
315 192 298 173 241 242 326 262 218 221 223 230 235 227 225 221 213 217 221 227 231 230 225 228 223 218 221 230 229 239 240 242
271 255 20 196 268 294 335 244 251 208 224 230 231 229 226 225 222 220 215 223 221 219 222 227 225 223 224 239 230 239 239 240
255 233 294 269 271 299 340 84 285 292 295 275 267 257 241 231 229 228 222 219 214 210 210 214 221 223 222 231 236 235 234 238
284 280 162 245 270 294 32 55 43 38 27 10 3 328 296 252 253 240 229 227 220 218 212 212 215 220 224 230 228 230 232 223
214 7 88 141 341 341 47 52 49 49 44 38 28 15 357 290 249 249 252 241 235 233 223 216 215 217 223 228 231 227 223 206
197 103 225 54 249 296 79 41 32 29 37 36 34 30 23 4 321 258 247 244 244 234 230 221 218 215 219 226 222 222 217 206